Location: Dobrzeń Wielki
(50.7693°N, 17.8414°E)
Time: 09:11:13
(UTC+01:00)

Envisat - Pass Details

Date: 23 October 2019
Orbit: 764 x 766 km, 98.1° (Epoch: 17 November)

Event Time Altitude Azimuth Distance (km) Brightness Sun altitude
Rises 19:18:51 0° 184° (S) 3,222 6.3 -16.1°
Reaches altitude 10° 19:21:15 10° 191° (S) 2,300 5.6 -16.5°
Maximum altitude 19:26:04 43° 262° (W) 1,069 4.3 -17.2°
Drops below altitude 10° 19:30:56 10° 334° (NNW) 2,316 5.9 -18.0°
Sets 19:33:22 0° 341° (NNW) 3,246 6.6 -18.4°
